Wind_Speed
39 44 46 45 49 41 36 31 31 30 26 20 16 14 12 1 4 5 11 14 13 11 13 13 13 13 17 25 24 23 24 21 19 17 14 13 11 10 10 10 14 15 15 16
38 39 38 38 45 44 41 37 36 34 28 22 19 17 13 7 5 4 11 14 14 13 13 14 15 15 22 25 24 23 23 20 18 15 14 13 11 9 8 8 11 12 14 14
36 33 35 38 41 48 47 46 41 38 32 26 21 19 15 10 9 6 6 14 13 14 14 17 19 20 24 22 23 24 22 19 17 16 14 12 9 8 7 5 6 8 9 9
34 31 32 33 42 45 49 50 42 38 34 31 23 21 19 15 10 9 7 10 13 13 17 20 21 25 25 23 23 24 21 18 15 13 11 10 8 7 5 3 4 6 7 8
40 35 29 31 32 41 48 47 45 39 35 32 28 26 21 20 14 12 7 9 15 16 20 24 25 27 24 22 24 24 22 19 17 13 11 9 7 4 3 2 1 3 6 8
41 41 30 36 29 33 39 45 47 44 39 32 39 35 27 25 18 16 10 11 17 20 22 25 28 27 27 28 28 27 24 21 18 16 13 12 10 8 5 4 6 6 7 8
46 45 41 38 34 30 30 39 40 43 40 46 48 37 37 27 22 17 15 12 19 22 21 22 24 27 25 23 25 25 24 21 19 16 15 15 14 12 10 10 10 10 10 10
55 50 45 42 39 34 31 27 28 41 47 51 42 39 39 32 25 19 17 16 22 21 22 22 23 26 26 25 24 23 23 23 22 21 20 18 17 15 13 12 14 14 13 13
59 54 52 46 46 38 32 22 29 29 42 45 47 52 42 36 30 26 22 22 26 25 23 23 25 25 24 26 27 25 26 27 25 23 22 20 18 17 17 15 15 17 18 18
60 57 57 57 49 40 34 30 21 20 21 36 49 56 52 44 39 34 29 28 26 27 23 23 25 27 27 27 26 25 25 26 25 24 24 23 20 20 18 17 18 19 20 20
66 61 60 59 48 45 41 34 31 27 22 24 36 51 58 50 44 40 36 34 31 27 26 26 23 24 25 26 29 29 29 28 27 27 26 24 23 22 22 22 21 23 25 24
74 68 62 60 56 54 49 42 35 30 29 30 34 40 51 54 50 44 40 39 35 32 30 29 29 29 27 29 32 34 34 34 31 30 29 28 28 27 27 28 28 27 28 30
81 74 71 66 61 55 50 42 39 38 35 27 25 24 25 37 50 50 47 44 41 37 34 34 31 32 33 34 37 37 38 40 37 36 35 34 34 34 35 36 36 36 32 31
83 81 76 71 67 63 56 49 45 40 32 33 30 33 30 26 36 49 52 53 50 47 45 41 38 36 35 37 38 37 40 42 42 43 42 41 40 39 41 42 41 38 35 35
88 84 79 74 72 66 61 56 49 42 37 32 39 35 37 32 28 39 49 53 52 50 49 47 45 44 41 42 42 42 42 41 42 42 43 44 42 39 39 37 39 41 43 43
94 91 85 78 76 73 68 61 56 49 43 38 40 40 41 40 32 28 34 38 49 52 52 51 50 49 48 50 49 48 48 48 46 44 46 46 45 46 44 45 45 47 49 49
99 95 92 83 79 78 73 65 63 58 53 47 42 44 49 45 37 35 32 31 35 41 48 50 56 55 54 53 53 54 54 53 52 52 53 53 54 53 52 52 52 53 54 55
101 100 97 92 85 82 72 73 69 63 57 51 49 46 46 46 43 36 33 33 31 30 28 28 29 40 49 52 55 57 57 57 58 59 59 59 59 59 58 59 60 61 59 60
103 103 101 99 91 82 79 77 74 68 62 56 54 55 50 50 51 43 36 37 39 36 35 33 32 32 36 38 39 42 44 49 50 56 62 64 65 65 64 65 67 68 65 67
101 103 102 99 96 89 81 82 80 75 67 63 61 61 58 54 50 47 47 43 41 40 38 36 35 34 38 41 41 41 43 44 47 50 54 55 57 59 60 62 66 67 69 71
101 98 98 100 97 93 89 85 80 76 69 68 66 66 64 59 56 59 58 50 49 45 45 42 40 38 40 39 38 39 41 44 50 52 54 56 59 60 59 56 57 58 58 54
99 97 95 99 96 92 90 90 87 81 78 75 72 71 68 67 66 64 64 62 58 54 51 48 46 44 43 42 41 41 43 44 45 46 48 51 54 59 62 60 51 56 34 38
93 94 98 93 91 94 94 89 86 88 84 81 77 74 72 69 70 70 69 64 59 57 57 55 54 51 49 48 46 46 47 51 50 50 52 53 54 57 61 61 53 31 36 65
94 96 90 93 87 91 93 94 90 85 84 81 78 76 73 72 73 72 71 67 65 61 59 59 57 57 56 54 54 52 54 54 57 55 53 54 55 55 58 57 58 50 48 55
103 98 95 89 88 91 95 95 95 91 86 84 80 77 76 76 75 73 73 71 70 67 65 64 63 62 61 61 60 59 60 61 61 61 59 56 56 57 58 58 54 51 47 54
102 105 101 95 97 90 91 95 94 92 89 87 82 80 77 77 77 77 78 76 75 73 72 71 70 68 68 68 68 68 67 67 67 64 62 62 62 62 63 61 59 51 53 55
Wind_Direction
259 254 252 250 248 245 244 236 237 248 255 256 260 270 275 189 80 271 232 224 206 212 227 228 199 181 192 176 176 169 161 156 150 143 135 120 108 111 114 106 96 90 83 72
262 262 256 247 243 239 239 237 229 240 244 250 252 255 262 232 235 316 246 219 215 229 240 218 186 178 185 181 177 175 168 162 155 148 144 130 120 112 108 97 84 79 72 59
261 257 250 242 238 236 228 231 225 228 234 240 247 250 250 247 244 227 237 220 208 238 223 201 171 178 185 186 181 179 173 168 162 154 150 135 124 113 107 98 85 75 66 53
255 251 252 245 236 237 234 231 233 228 233 237 238 246 246 245 237 225 202 210 191 211 198 181 162 179 187 185 186 184 182 177 170 164 159 146 145 142 124 95 54 47 56 56
241 252 247 247 240 234 235 234 227 231 230 239 238 237 234 238 236 215 209 204 185 193 195 166 169 183 190 192 187 190 194 187 186 181 175 170 170 170 184 224 311 28 31 37
234 241 229 238 242 236 235 234 227 223 222 225 237 231 228 230 229 224 204 191 181 180 190 176 178 187 190 191 193 195 199 202 201 200 206 207 199 211 237 277 311 331 1 8
232 233 226 236 239 234 231 235 231 224 218 223 226 228 228 225 225 223 214 190 184 169 190 198 190 190 200 203 205 204 203 211 219 223 229 236 233 230 246 271 288 307 327 341
230 232 232 225 231 227 234 236 231 223 219 225 227 235 229 225 222 223 217 200 198 189 193 203 203 198 201 208 215 213 214 218 225 233 240 247 249 245 246 260 280 295 304 315
230 227 232 230 231 230 228 212 225 226 225 222 222 235 233 229 221 217 219 212 211 204 199 205 203 209 212 212 211 216 217 223 229 235 243 250 256 259 259 259 268 279 289 296
229 228 230 231 230 233 230 224 218 209 211 219 219 228 227 222 222 218 215 220 213 211 207 210 214 211 214 216 219 225 228 231 233 239 245 254 259 266 268 267 272 278 284 289
228 226 228 230 227 228 223 214 198 195 207 205 213 225 231 223 221 222 218 222 215 217 213 215 226 226 224 223 223 227 231 234 236 239 244 252 259 264 268 273 276 281 283 284
228 225 227 227 224 222 218 213 199 197 207 211 213 221 228 225 221 220 223 226 223 220 220 218 219 224 226 227 229 231 234 237 240 245 246 251 258 263 267 272 276 279 285 287
224 224 224 227 224 223 219 212 201 200 204 216 233 231 226 230 224 227 223 223 224 225 230 225 224 224 226 231 235 237 237 239 242 246 251 256 260 265 271 277 280 282 283 284
225 224 223 224 224 222 218 211 208 207 204 209 211 229 224 220 217 222 228 225 223 223 224 225 227 228 227 231 236 238 242 245 247 250 253 255 257 264 269 270 272 274 279 281
226 225 224 222 226 223 219 215 209 206 204 205 205 219 238 230 220 217 225 230 233 232 231 230 230 233 235 240 239 241 244 247 251 251 255 259 261 264 270 275 271 271 277 281
224 225 225 224 223 223 220 217 212 208 210 207 213 215 228 237 230 213 217 221 231 235 238 239 236 236 237 241 245 245 246 248 251 255 258 260 262 266 268 270 272 274 277 282
223 224 224 224 222 222 219 218 218 214 213 209 210 214 223 234 229 224 219 217 215 228 235 239 243 245 247 246 248 251 252 253 255 257 261 264 267 268 270 272 275 277 280 284
221 222 224 223 221 220 218 221 219 217 215 211 214 217 228 236 238 230 224 217 224 232 233 239 239 242 247 250 252 254 258 260 262 264 265 266 268 271 273 274 276 277 280 281
221 221 223 224 223 219 217 221 221 218 215 216 217 218 223 235 238 235 227 222 219 223 231 236 240 246 255 256 259 260 260 263 265 265 265 267 269 270 272 273 275 277 279 282
223 221 221 222 222 221 219 220 222 220 217 221 221 219 222 227 236 239 234 225 224 222 225 234 241 243 245 252 260 266 269 271 273 274 275 276 276 275 276 276 277 279 281 281
222 222 221 221 221 220 220 223 224 223 222 226 225 222 221 223 226 231 236 231 232 233 230 229 234 240 243 247 256 261 264 267 268 272 275 278 279 280 281 283 284 285 286 291
225 222 220 221 219 219 221 223 224 225 227 228 228 224 223 223 227 231 236 237 233 235 237 240 239 241 244 248 254 259 263 269 272 273 273 274 278 281 286 288 288 299 270 295
226 226 222 220 219 218 221 223 224 224 225 227 227 226 224 225 227 230 234 237 238 237 238 238 240 243 247 252 257 260 264 267 270 276 277 277 280 283 285 287 292 277 238 255
227 228 224 223 219 219 220 222 222 220 222 226 229 229 227 226 227 228 231 236 240 240 243 245 247 247 250 254 259 263 267 269 268 272 275 278 279 281 282 285 288 283 266 269
225 226 226 222 220 218 217 218 220 221 223 227 227 230 231 230 231 232 233 235 239 242 246 249 249 249 253 257 259 262 266 268 269 268 271 277 278 278 280 285 284 285 278 274
222 224 224 223 221 215 215 217 217 221 223 225 226 227 230 233 233 234 235 237 240 244 246 249 252 253 256 259 260 262 264 268 269 270 271 272 274 275 278 279 280 278 281 275
Height
10899 10899 10903 10908 10910 10922 10927 10933 10931 10930 10933 10937 10941 10941 10942 10942 10941 10943 10943 10944 10946 10948 10950 10952 10953 10955 10959 10962 10965 10969 10972 10976 10979 10982 10984 10985 10988 10990 10990 10990 10990 10990 10988 10987
10888 10891 10895 10899 10902 10911 10918 10923 10925 10925 10929 10932 10937 10939 10938 10938 10939 10940 10940 10941 10943 10945 10947 10949 10951 10954 10959 10962 10965 10969 10973 10977 10979 10982 10984 10986 10987 10989 10991 10991 10991 10990 10989 10988
10878 10883 10883 10887 10891 10895 10903 10907 10915 10918 10923 10928 10932 10934 10933 10934 10936 10936 10937 10938 10939 10942 10944 10946 10949 10954 10960 10963 10966 10969 10973 10976 10979 10982 10984 10985 10986 10988 10989 10990 10991 10991 10990 10989
10871 10874 10875 10878 10880 10886 10892 10897 10910 10916 10919 10923 10928 10928 10929 10930 10932 10934 10933 10935 10934 10939 10942 10944 10946 10953 10959 10963 10966 10970 10974 10976 10978 10981 10983 10984 10985 10986 10987 10988 10989 10990 10990 10988
10858 10867 10869 10868 10873 10877 10878 10891 10900 10910 10916 10918 10922 10923 10924 10925 10928 10931 10932 10932 10933 10936 10941 10942 10946 10952 10958 10961 10965 10970 10973 10975 10977 10980 10983 10984 10986 10986 10987 10988 10988 10989 10989 10986
10851 10855 10862 10857 10866 10868 10874 10878 10887 10897 10905 10914 10906 10911 10917 10918 10923 10926 10929 10930 10930 10934 10941 10941 10944 10949 10954 10957 10961 10964 10969 10974 10976 10978 10981 10983 10984 10985 10986 10987 10986 10986 10987 10986
10839 10843 10848 10853 10858 10862 10865 10869 10880 10890 10898 10888 10892 10905 10905 10913 10917 10922 10926 10930 10931 10933 10939 10942 10943 10946 10952 10956 10960 10963 10966 10971 10974 10977 10978 10980 10981 10982 10983 10983 10983 10983 10983 10984
10825 10834 10840 10844 10847 10854 10859 10866 10870 10872 10879 10881 10895 10899 10901 10907 10914 10919 10922 10926 10931 10932 10936 10940 10944 10947 10950 10954 10959 10961 10964 10967 10970 10972 10974 10976 10978 10980 10980 10980 10979 10979 10979 10980
10811 10823 10827 10834 10837 10846 10852 10861 10858 10867 10871 10878 10885 10879 10895 10902 10908 10914 10917 10921 10924 10927 10931 10936 10940 10943 10947 10951 10954 10959 10961 10963 10966 10968 10970 10971 10972 10974 10976 10976 10976 10976 10976 10976
10799 10808 10814 10816 10828 10839 10848 10852 10860 10862 10862 10866 10872 10871 10878 10890 10899 10905 10912 10913 10918 10923 10927 10931 10935 10939 10942 10946 10951 10955 10957 10959 10961 10963 10964 10965 10967 10969 10970 10971 10972 10971 10972 10972
10783 10793 10798 10804 10821 10828 10834 10843 10849 10853 10857 10857 10860 10863 10866 10881 10891 10898 10904 10907 10913 10916 10920 10925 10929 10934 10938 10943 10945 10949 10952 10955 10957 10958 10959 10960 10962 10964 10965 10966 10967 10967 10966 10967
10763 10776 10783 10793 10802 10809 10819 10831 10842 10849 10851 10850 10853 10857 10860 10871 10881 10891 10897 10902 10907 10911 10915 10919 10923 10928 10931 10934 10937 10940 10944 10946 10949 10952 10954 10955 10956 10958 10959 10960 10960 10960 10961 10960
10742 10758 10765 10774 10788 10801 10813 10824 10832 10838 10843 10851 10851 10852 10856 10862 10876 10881 10888 10893 10898 10904 10909 10913 10917 10921 10923 10925 10927 10930 10934 10936 10940 10943 10946 10948 10950 10951 10953 10954 10954 10954 10954 10953
10723 10737 10751 10764 10772 10782 10799 10811 10820 10830 10840 10843 10847 10844 10849 10854 10862 10868 10873 10879 10885 10890 10895 10902 10908 10911 10914 10916 10918 10922 10924 10928 10932 10934 10935 10937 10939 10943 10944 10945 10946 10946 10946 10946
10699 10716 10732 10748 10756 10772 10785 10799 10810 10822 10830 10839 10836 10840 10841 10848 10854 10860 10866 10871 10875 10881 10887 10892 10897 10901 10906 10907 10910 10913 10915 10920 10923 10925 10926 10926 10931 10931 10933 10935 10937 10937 10936 10937
10679 10695 10713 10729 10740 10754 10769 10785 10800 10812 10821 10829 10830 10834 10834 10836 10847 10853 10855 10862 10866 10870 10874 10879 10885 10889 10893 10896 10899 10903 10907 10909 10914 10917 10916 10917 10920 10921 10923 10925 10925 10926 10926 10926
10658 10675 10693 10710 10723 10736 10753 10773 10783 10794 10803 10814 10822 10824 10822 10827 10837 10843 10848 10853 10857 10861 10865 10870 10874 10878 10882 10885 10887 10891 10894 10899 10902 10904 10904 10906 10907 10910 10913 10916 10917 10916 10917 10916
10636 10654 10670 10689 10704 10718 10751 10752 10764 10778 10792 10805 10815 10817 10819 10820 10826 10836 10841 10845 10849 10852 10856 10858 10861 10865 10868 10872 10876 10879 10883 10886 10888 10890 10892 10894 10896 10899 10905 10906 10905 10905 10908 10907
10612 10630 10649 10664 10687 10713 10724 10737 10749 10763 10779 10791 10803 10808 10810 10811 10817 10828 10832 10836 10838 10841 10846 10850 10853 10856 10859 10862 10864 10867 10871 10872 10874 10876 10879 10881 10884 10887 10892 10892 10889 10889 10894 10892
10590 10608 10627 10649 10670 10692 10711 10716 10728 10745 10766 10777 10787 10793 10798 10802 10811 10817 10818 10824 10829 10832 10835 10840 10844 10849 10851 10852 10855 10858 10859 10861 10861 10861 10863 10868 10871 10874 10877 10875 10876 10877 10876 10876
10566 10585 10611 10624 10647 10673 10691 10702 10718 10735 10755 10759 10769 10778 10784 10793 10797 10795 10797 10811 10818 10824 10827 10831 10836 10839 10841 10845 10846 10847 10850 10850 10848 10853 10854 10853 10855 10859 10862 10864 10863 10861 10861 10862
10545 10566 10588 10604 10629 10653 10675 10686 10704 10717 10730 10739 10749 10760 10770 10777 10780 10784 10785 10795 10804 10811 10817 10823 10827 10829 10832 10835 10838 10838 10837 10836 10838 10837 10839 10840 10841 10843 10846 10849 10853 10849 10842 10851
10530 10547 10560 10586 10616 10639 10650 10668 10684 10695 10710 10717 10729 10739 10752 10761 10766 10770 10773 10780 10788 10797 10803 10808 10813 10817 10820 10823 10825 10828 10829 10827 10828 10829 10829 10829 10830 10831 10832 10833 10836 10840 10837 10842
10513 10519 10547 10563 10594 10617 10631 10641 10657 10673 10688 10701 10713 10723 10735 10743 10748 10756 10762 10767 10772 10780 10787 10793 10799 10803 10805 10807 10810 10813 10816 10816 10816 10818 10819 10819 10820 10818 10818 10820 10820 10823 10827 10824
10481 10499 10520 10547 10572 10586 10603 10617 10634 10650 10669 10681 10694 10705 10716 10726 10733 10740 10748 10754 10759 10765 10770 10775 10781 10785 10788 10790 10794 10797 10800 10801 10803 10804 10804 10805 10806 10806 10805 10805 10806 10806 10803 10801
10460 10473 10496 10527 10537 10559 10582 10594 10618 10638 10653 10662 10677 10690 10700 10707 10716 10723 10731 10739 10744 10750 10756 10758 10763 10768 10771 10773 10776 10778 10781 10784 10786 10788 10789 10789 10789 10790 10790 10789 10789 10792 10788 10784